Location: ??????????
(44.0150°N, 135.4967°E)
Time: 12:14:57
(UTC+00:00)

Daily predictions for brighter satellites

Satellite Brightness Start Highest point End
(mag) Time Altitude Azimuth Time Altitude Azimuth Time Altitude Azimuth
Cosmos 2369 Rocket 3.4 12:01:56 10° SW 12:07:22 45° WNW 12:12:48 10° NNE
Okean-O 3.2 12:03:33 10° S 12:07:47 53° W 12:12:05 10° NNW
Cosmos 1867 3.6 12:03:31 10° SSW 12:08:48 55° ESE 12:14:08 10° NE
Cosmos 1812 2.3 12:05:43 10° N 12:08:50 58° E 12:10:09 30° SSE
SPOT 3 Rocket 3.7 12:05:17 19° SSE 12:08:55 61° ENE 12:14:03 10° N
Okean O Rocket 2.9 12:06:47 10° SSW 12:10:50 37° W 12:14:55 10° NNW
Helios 1A 3.3 12:08:51 10° N 12:12:45 63° WNW 12:16:39 10° SSW
Cosmos 1538 Rocket 4.2 12:09:19 10° NNW 12:14:40 65° ENE 12:17:58 23° SE
Cosmos 990 Rocket 4.4 12:10:54 10° SSW 12:16:01 66° WNW 12:21:14 10° NNE
PSLV R/B 4.2 12:15:59 27° ESE 12:16:48 32° ENE 12:19:37 10° N
Cosmos 2297 Rocket 3.9 12:16:43 10° N 12:21:03 22° NE 12:24:49 12° E
Cosmos 1818 4.3 12:17:24 10° NW 12:22:36 46° WSW 12:26:14 19° S
USA 245 3.6 12:20:42 19° S 12:23:22 55° WSW 12:26:37 10° NNW
ASTEX 1 3.3 12:18:38 10° N 12:23:31 85° W 12:27:33 15° S
SAR-Lupe-2 3.5 12:22:51 31° SSE 12:24:26 80° ENE 12:28:02 10° N
Lacrosse 5 rocket 4.0 12:24:54 10° NNW 12:27:01 14° NNE 12:29:10 10° NE
USA 81 4.5 12:27:16 26° SE 12:29:43 44° E 12:34:41 10° NNE
Terra 3.2 12:26:13 10° SSW 12:30:26 33° W 12:34:42 10° NNW
Cosmos 372 Rocket 3.8 12:26:26 14° S 12:30:51 71° ESE 12:35:55 10° NNE
IRS-1C Rocket 4.2 12:29:26 21° S 12:33:01 73° WSW 12:38:18 10° NNW
COBE Rocket 3.8 12:28:47 10° NNE 12:33:20 56° E 12:35:29 29° SSE
Cosmos 1627 Rocket 4.5 12:30:05 21° S 12:34:16 65° E 12:40:19 10° NNE
Cosmos 1400 Rocket 4.5 12:33:06 10° NNE 12:35:47 18° ENE 12:36:24 17° E
Cosmos 2228 3.7 12:35:11 10° N 12:39:10 38° ENE 12:40:19 32° ESE
Nadezhda 4 Rocket 4.5 12:34:18 10° SSW 12:40:34 62° WNW 12:46:51 10° N
CZ-4C R/B 3.1 12:39:24 10° WSW 12:43:32 42° NW 12:48:44 10° NNE
Aureole 1 Rocket 4.3 12:42:19 10° SSW 12:48:55 80° WNW 12:56:28 10° NNE
RESURS DK-1 3.3 12:45:46 10° N 12:49:27 35° ENE 12:50:31 29° E
Tiangong -1.6 12:47:35 10° WSW 12:50:15 47° SW 12:50:15 47° SW
BREEZE M DEB (TANK) 2.4 12:46:37 10° WSW 12:51:38 82° NNW 12:53:08 23° ENE
Cosmos 2227 Rocket 4.1 12:50:02 10° N 12:54:03 19° NE 12:57:42 11° E
Cosmos 1975 Rocket 3.0 12:56:05 32° SSW 12:58:02 78° W 13:02:20 10° N
Cosmos 1937 Rocket 3.3 12:55:10 26° SSW 12:58:07 81° ESE 13:03:16 10° NNE
Cosmos 2026 Rocket 4.0 12:54:02 20° SSW 12:58:23 80° W 13:04:28 10° N
Ariane Rocket 3.5 12:56:29 25° SSW 12:59:11 53° W 13:04:08 10° NNW
Iridium 82 4.1 12:56:32 10° N 12:59:50 81° E 12:59:54 80° ESE
Cosmos 2098 Rocket 2.6 12:56:31 10° N 13:00:00 67° E 13:00:33 57° SE
Cosmos 2058 4.4 13:05:01 22° ENE 13:05:01 22° ENE 13:07:40 10° NE
Gbstr 26 Del rocket 3.9 13:00:44 10° NW 13:05:52 68° NNE 13:09:36 25° ESE
ISS -3.8 13:03:04 10° WNW 13:06:26 81° NNE 13:06:28 81° NE
Cosmos 1455 Rocket 4.0 13:03:36 10° NNW 13:07:40 41° W 13:09:32 26° SW
Cosmos 1680 Rocket 3.7 13:03:53 10° NNW 13:09:08 62° ENE 13:10:51 40° SE
BlueWalker 3 2.3 13:07:45 10° NW 13:11:22 53° NNE 13:12:02 45° ENE
Cosmos 858 Rocket 4.3 13:11:01 36° S 13:13:12 80° ESE 13:18:24 10° NNE
Cosmos 1656 3.5 13:16:48 29° SSW 13:19:45 86° ESE 13:25:18 10° NNE
Cosmos 1553 Rocket 4.0 13:13:49 10° N 13:20:09 77° E 13:22:38 40° SSE
Cosmos 923 Rocket 4.0 13:16:18 10° NNW 13:21:30 78° WSW 13:23:00 47° S
DELTA 2 R/B (1) 3.6 13:18:32 10° W 13:23:55 53° S 13:24:45 49° SSE
MetOp-A 4.4 13:27:19 31° ENE 13:27:23 31° ENE 13:30:46 10° N
ATLAS 2AS CENTAUR R/B 4.3 13:22:09 10° NNW 13:27:47 27° NNE 13:33:21 10° E
Meteor 2-20 Rocket 4.3 13:23:34 10° N 13:29:32 73° E 13:31:18 46° SSE
Cosmos 494 Rocket 4.3 13:24:57 10° NNW 13:30:04 55° ENE 13:31:19 43° ESE
Cosmos 2263 Rocket 4.1 13:32:33 10° N 13:36:46 21° NE 13:40:02 13° E
CZ-4C R/B 3.6 13:33:42 10° NNE 13:36:48 50° ENE 13:36:48 50° ENE
S3M 4.2 13:36:23 10° N 13:42:34 56° ENE 13:44:21 42° SE
ARIANE 5 R/B 2.6 13:49:12 64° E 13:49:30 66° ENE 13:53:55 10° N
Cosmos 1536 Rocket 3.4 13:51:33 74° SW 13:51:53 81° W 13:56:19 10° N
Cosmos 1544 Rocket 4.4 13:54:37 10° NNW 13:58:42 39° W 13:59:15 37° WSW
Cosmos 1606 Rocket 3.6 13:56:47 10° N 14:01:08 66° ENE 14:01:08 66° ENE
Cosmos 1782 3.1 13:59:26 10° N 14:02:28 59° N 14:02:28 59° N
Lacrosse 5 rocket 2.4 14:01:41 10° NW 14:05:21 36° NNE 14:06:00 33° NE
Cosmos 2297 Rocket 2.2 14:00:00 10° NNW 14:05:37 68° WSW 14:06:35 57° SSW
CZ-2C R/B 3.8 14:01:37 10° N 14:06:19 76° WNW 14:06:54 65° SW
Cosmos 1655 Rocket 4.2 14:06:37 47° SE 14:08:01 57° E 14:14:14 10° NNE
Cosmos 1933 4.1 14:07:32 10° N 14:10:42 42° NE 14:10:42 42° NE
Cosmos 1400 Rocket 4.1 14:08:03 10° NNW 14:11:06 30° W 14:11:06 30° W
Cosmos 1980 Rocket 2.9 14:12:07 37° ESE 14:12:07 37° ESE 14:17:05 10° NE
Cosmos 1862 3.9 14:14:20 47° NNE 14:14:20 47° NNE 14:17:03 10° NNE
Cosmos 1697 Rocket 2.6 14:14:11 60° SSW 14:15:18 87° ESE 14:21:01 10° NNE
Cosmos 1726 Rocket 3.6 14:18:08 10° N 14:22:48 82° E 14:22:49 82° E
RESURS DK-1 4.3 14:23:42 10° WNW 14:25:52 19° W 14:25:52 19° W
Landsat 5 3.8 14:23:18 10° N 14:26:21 55° N 14:26:21 55° N
Cosmos 2058 Rocket 3.6 14:28:09 10° N 14:32:24 51° ENE 14:32:24 51° ENE
EO 1 Delta rocket 4.1 14:33:08 57° E 14:33:31 59° ENE 14:38:40 10° N
Cosmos 2227 Rocket 2.0 14:33:05 10° NNW 14:38:47 81° WSW 14:39:28 69° S
ALOS 2 2.8 14:40:23 63° WNW 14:40:23 63° WNW 14:44:28 10° NNW
Cosmos 2058 4.4 14:40:30 26° WNW 14:40:37 26° WNW 14:43:59 10° NNW
Spot 4 4.2 14:41:39 51° WSW 14:41:42 51° W 14:46:24 10° NNW
Cosmos 1892 Rocket 3.7 14:43:47 68° NW 14:43:47 68° NW 14:47:46 10° N
PSLV R/B 3.6 14:41:02 10° NNE 14:45:44 83° WNW 14:45:44 83° WNW
BREEZE-M DEB (TANK) 3.6 14:42:13 10° WNW 14:46:43 39° N 14:46:43 39° N
Cosmos-2242 3.5 14:44:01 10° N 14:47:48 51° ENE 14:47:48 51° ENE
Cosmos 1626 Rocket 4.4 14:51:31 41° ENE 14:51:31 41° ENE 14:55:12 10° NNE
Meteor 2-3 Rocket 3.7 14:50:11 65° SSW 14:51:05 86° W 14:56:53 10° N
Cosmos 2221 3.9 15:08:38 10° NNE 15:12:19 28° ENE 15:12:33 28° E
Cosmos 614 Rocket 3.7 15:08:40 10° NNW 15:13:45 86° WSW 15:13:53 84° SSW
Cosmos 2322 Rocket 4.1 15:14:28 15° ESE 15:15:01 15° E 15:18:10 10° ENE
Geosat 4.1 15:14:27 10° NE 15:19:22 58° ESE 15:19:22 58° ESE
ATLAS 2AS CENTAUR R/B 2.5 15:12:45 10° NW 15:19:33 89° SW 15:21:33 49° SSE
Cosmos 1125 Rocket 4.1 15:19:32 42° W 15:20:34 48° WNW 15:25:40 10° N
ATLAS 5 CENTAUR R/B 3.6 15:17:17 10° NNW 15:21:08 28° NE 15:25:43 10° ESE
Cosmos 2263 Rocket 2.0 15:15:39 10° NNW 15:21:15 72° WSW 15:21:40 68° SW
PSLV R/B 4.5 15:21:29 10° N 15:24:50 51° NW 15:24:50 51° NW
USA 215 3.3 15:20:57 23° ESE 15:25:22 80° NE 15:31:56 10° NW
Meteor 2-6 Rocket 4.4 15:27:10 10° N 15:33:02 72° ENE 15:34:23 53° SE
Meteor 1-26 Rocket 4.2 15:29:45 10° NNW 15:35:04 59° W 15:35:28 58° WSW
IDEFIX/ARIANE 42P 4.3 15:32:47 10° NE 15:36:33 20° E 15:37:40 19° ESE
Cosmos 2082 3.5 15:31:12 10° NNW 15:36:54 85° WSW 15:37:43 67° SSE
Cosmos 2150 Rocket 4.0 15:36:55 68° SW 15:37:35 82° WNW 15:43:04 10° NNE
Cosmos 2369 3.7 15:38:08 59° SW 15:39:09 73° WNW 15:44:49 10° NNE
Lacrosse 5 rocket 3.6 15:39:07 10° WNW 15:39:53 15° WNW 15:39:53 15° WNW
SL-16 R/B 2.5 15:47:10 47° SE 15:47:53 50° ESE 15:53:20 10° NE
Nadezhda 1 Rocket 3.8 15:42:02 10° N 15:48:14 89° WSW 15:49:39 56° S
GEOS 3 Rocket 4.4 15:43:23 10° NNE 15:48:25 47° NW 15:50:33 31° W
Cosmos 1812 Rocket 3.5 15:49:06 10° N 15:53:12 77° NW 15:53:12 77° NW
CZ-2C R/B 2.7 15:52:23 57° SSE 15:53:37 84° ENE 15:59:15 10° NNW
Cosmos 2219 3.5 15:49:35 10° NW 15:55:00 47° WSW 15:55:06 47° WSW
Cosmos 1980 Rocket 3.3 15:53:50 26° W 15:55:57 35° NW 16:01:05 10° N
Cosmos 1745 Rocket 4.0 15:56:27 53° SSW 15:58:04 83° W 16:04:28 10° N
Cosmos 2333 Rocket 3.0 15:58:06 35° SE 15:59:06 38° ESE 16:04:20 10° NE
Cosmos 1825 Rocket 3.6 16:03:24 67° E 16:03:26 68° E 16:07:49 10° NNE
CZ-2D R/B 4.4 16:01:08 10° ENE 16:03:35 13° E 16:06:03 10° ESE
H-2A R/B 2.4 16:05:11 70° NE 16:05:11 70° NE 16:08:51 10° N
USA 32 4.1 16:04:29 56° WSW 16:05:07 61° W 16:10:18 10° N
CENTAUR R/B 2.4 16:04:58 52° SSE 16:05:56 59° ESE 16:12:30 10° NE
Cosmos 2151 2.9 16:06:53 74° NW 16:06:53 74° NW 16:10:46 10° N
Cosmos 1709 Rocket 3.9 16:09:12 50° S 16:11:01 89° WNW 16:17:19 10° N
Cosmos 1844 Rocket 2.9 16:10:04 10° NNW 16:15:41 66° ENE 16:18:26 30° SE
Cosmos 1140 Rocket 4.0 16:12:05 10° NNW 16:17:11 57° ENE 16:19:34 30° SE
Okean 1-7 Rocket 3.9 16:18:37 52° W 16:18:49 53° WNW 16:23:15 10° N
Cosmos 1238 Rocket 3.1 16:15:01 10° NNW 16:20:00 68° W 16:20:17 66° WSW
Meteor 1-20 Rocket 4.2 16:19:50 52° S 16:21:22 84° E 16:27:06 10° NNE
Cosmos 2227 Rocket 4.4 16:20:18 10° W 16:21:14 11° W 16:21:14 11° W
Cosmos 1707 4.1 16:21:36 10° NNE 16:24:22 25° ENE 16:24:47 24° E
Cosmos 921 Rocket 4.2 16:23:01 10° NW 16:26:06 30° WNW 16:26:06 30° WNW
Meteor 1-10 Rocket 4.2 16:21:37 10° NNW 16:27:26 80° W 16:29:12 47° S
Cosmos 2181 Rocket 4.3 16:23:51 10° N 16:29:55 61° E 16:33:13 28° SSE
NOSS 3-2 (A) 3.7 16:29:57 35° SE 16:30:56 39° ESE 16:36:11 10° NE
Cosmos 44 Rocket 3.3 16:30:15 54° WSW 16:31:03 66° NW 16:35:47 10° NNE
Cosmos 1844 3.7 16:25:55 10° NNW 16:31:40 80° ENE 16:34:42 29° SSE
Cosmos 2360 Rocket 2.4 16:32:00 43° SSE 16:33:34 58° ESE 16:39:06 10° NNE
CZ-2C R/B 3.5 16:29:24 10° N 16:33:52 42° WNW 16:34:44 38° W
Cosmos 2227 4.1 16:28:39 10° NNW 16:34:20 71° WSW 16:36:01 46° S
Cosmos 1743 2.9 16:35:34 55° NNW 16:35:34 55° NNW 16:38:19 10° N
Uosat 12 SS-18 rocket 4.0 16:38:48 64° S 16:39:18 72° ESE 16:43:59 10° NE
ARIANE 6 FM1 Upper Stage 3.3 16:40:15 40° ESE 16:40:15 40° ESE 16:43:57 10° NE
Cosmos 407 Rocket 4.2 16:37:28 10° NNW 16:42:38 52° ENE 16:46:57 15° SE
MSX 3.9 16:37:08 10° NNE 16:42:53 74° ESE 16:45:04 39° S
Cosmos 1842 Rocket 3.7 16:39:22 10° N 16:43:44 68° E 16:44:56 45° SE
Cosmos 1076 Rocket 3.3 16:43:38 68° SW 16:44:06 78° W 16:48:21 10° N
Cosmos 2278 3.9 16:43:27 40° WSW 16:45:18 61° WNW 16:50:55 10° NNE
Cosmos 2219 Rocket 3.0 16:43:43 29° SSE 16:45:50 41° ESE 16:51:03 10° NE
Cosmos 1346 Rocket 3.3 16:48:34 40° WNW 16:48:34 40° WNW 16:51:56 10° N
Cosmos 2221 3.9 16:45:51 10° NW 16:48:55 24° W 16:48:55 24° W
H-2A R/B 2.7 16:50:42 10° NNE 16:54:51 47° E 16:56:15 34° SSE
Cosmos 2322 Rocket 2.2 16:56:15 41° SW 16:58:17 78° WNW 17:03:57 10° NNE
ATLAS 5 CENTAUR R/B 2.1 16:59:31 10° NW 17:04:06 51° WSW 17:05:54 36° S
Cosmos 1842 2.8 17:03:42 10° N 17:07:07 86° ENE 17:07:29 69° SSE
USA 215 3.9 17:08:15 31° SW 17:08:46 31° SW 17:14:28 10° WNW
ATLAS 2AS CENTAUR R/B 4.1 17:05:23 10° WNW 17:08:55 17° W 17:08:55 17° W
ATLAS CENTAUR R/B 1.9 17:09:17 36° SE 17:09:53 38° ESE 17:13:25 10° NE
KORONAS-FOTON 3.6 17:06:45 10° NNW 17:10:13 59° W 17:10:16 59° W
BREEZE M DEB (TANK) 2.8 17:10:00 16° WNW 17:12:05 80° NNE 17:18:09 10° ESE
ALOS 3.4 17:09:37 10° NNE 17:13:52 36° E 17:16:41 18° SSE
FENGYUN 3A 3.6 17:08:42 10° NNE 17:14:09 89° ESE 17:16:46 32° SSW
COSMOS 2441 4.4 17:10:35 10° NNE 17:15:30 80° ESE 17:17:44 33° S
IDEFIX/ARIANE 42P 2.9 17:11:17 10° N 17:16:19 53° WNW 17:18:22 33° SW
Cosmos 2184 Rocket 4.0 17:12:52 29° S 17:16:24 88° W 17:22:50 10° N
Resurs 1-4 Rocket 2.3 17:14:01 10° NNE 17:19:20 70° ESE 17:22:21 26° S
Cosmos 405 Rocket 3.7 17:24:53 21° SE 17:26:19 32° E 17:29:15 10° NNE
MOZ.5/SAFIR/RUBIN 5/SL-8 4.1 17:27:45 34° SSW 17:29:17 47° W 17:33:49 10° NNW
Cosmos 2154 Rocket 4.0 17:26:00 26° SSW 17:29:48 80° W 17:36:10 10° N
USA 276 4.1 17:28:42 12° WNW 17:30:36 22° N 17:32:45 10° NE
Cosmos 1420 Rocket 4.0 17:28:46 29° SSW 17:31:32 84° ESE 17:36:47 10° NNE
SL-16 R/B 3.6 17:29:00 17° W 17:32:13 28° NW 17:37:04 10° N
NPP 4.1 17:27:26 10° N 17:32:36 48° WNW 17:35:14 27° SW
Envisat 3.7 17:27:52 10° NNE 17:32:49 50° E 17:36:40 16° S
H-2A R/B 4.0 17:29:28 10° NE 17:33:10 21° E 17:36:50 10° SE
Cosmos 1624 Rocket 4.5 17:30:40 21° S 17:33:59 56° ESE 17:39:09 10° NNE
Cosmos 2074 Rocket 4.1 17:34:01 26° SSW 17:37:31 59° WNW 17:43:41 10° N
Milstar 3 Cent rocket 4.0 17:36:59 20° SSW 17:37:51 21° S 17:42:09 10° SE
Cosmos 2251 Rocket 3.4 17:35:26 10° NNW 17:40:44 82° WSW 17:45:58 10° SSE
Cosmos 1190 Rocket 4.0 17:37:46 10° NNW 17:42:59 83° ENE 17:48:09 10° SSE
Cosmos 2333 Rocket 3.2 17:40:07 20° WSW 17:43:24 35° NW 17:48:36 10° N
CZ-2D R/B 2.0 17:38:58 10° NNE 17:44:11 79° WNW 17:47:29 23° SSW
Meteor 1-18 Rocket 4.1 17:39:32 10° NNW 17:45:04 71° W 17:49:43 15° S
Cosmos 2056 Rocket 3.5 17:44:46 22° S 17:48:10 77° ESE 17:53:17 10° NNE
NOSS 2-2 (E) 3.9 17:46:57 23° S 17:48:29 35° ESE 17:51:20 10° NE
Cosmos 1371 Rocket 4.1 17:47:41 21° SSW 17:51:19 80° ESE 17:56:36 10° NNE
Cosmos 1066 Rocket 4.2 17:49:09 10° NNW 17:54:23 58° W 17:58:39 15° S
ADEOS II 2.1 17:49:17 10° NNE 17:54:32 88° WNW 17:58:32 18° SSW
Meteor 2-4 Rocket 4.3 17:49:44 10° NNW 17:54:35 36° W 17:57:25 21° SW
CENTAUR R/B 3.8 17:52:03 12° W 17:56:59 33° NW 18:03:27 10° NNE
Cosmos 1707 4.2 17:55:53 10° NW 17:57:51 16° W 17:57:51 16° W
NOSS 2-2 (D) 3.2 17:56:44 25° SSW 17:58:27 54° SE 18:01:28 10° NE
Cosmos 1844 Rocket 4.1 17:55:13 10° WNW 17:58:56 18° W 18:00:00 17° WSW
Cosmos 2237 Rocket 4.0 17:57:17 10° SSE 18:01:54 26° ESE 18:06:32 10° NE
DMSP B5D2-2 4.1 17:57:28 10° SSE 18:02:42 86° ENE 18:07:56 10° NNW
COSMOS 2428 2.9 18:01:09 15° SSW 18:05:52 70° ESE 18:11:34 10° NNE
SeaSat 1 2.4 18:01:30 10° SSE 18:06:18 60° WSW 18:11:11 10° NW
SAR-Lupe-3 3.9 18:04:23 13° SSE 18:06:57 87° W 18:09:55 10° NNW
Cosmos 1943 Rocket 3.8 18:03:19 10° NNW 18:08:33 37° NE 18:13:47 10° ESE
Cosmos 2322 3.7 18:04:15 17° SSW 18:08:46 85° ESE 18:14:30 10° NNE
SL-14 R/B 4.0 18:05:41 10° N 18:09:20 50° ENE 18:13:00 10° SSE
COSMOS 2455 4.3 18:05:29 10° S 18:10:41 32° ESE 18:15:56 10° NE
Lacrosse 4 Rocket 2.1 18:11:26 13° S 18:14:50 48° ESE 18:18:51 10° NE
NOSS 3-2 (C) 3.1 18:11:02 18° SW 18:14:53 85° NW 18:20:54 10° NE
Cosmos 2084 Rocket 3.5 18:14:08 17° SSW 18:17:17 73° SE 18:21:32 10° NE
Cosmos 2360 Rocket 3.7 18:13:44 11° WSW 18:17:56 25° NW 18:22:30 10° N
SL-8 Rocket 4.0 18:12:04 10° S 18:18:15 87° E 18:24:32 10° N
BREEZE M DEB (TANK) 3.5 18:13:57 10° WNW 18:19:12 37° N 18:21:36 10° ENE
ARIANE 6 FM1 Upper Stage 4.1 18:16:20 12° W 18:19:26 26° NW 18:22:49 10° NNE
Meteor 1-11 Rocket 4.3 18:15:59 10° S 18:21:36 62° E 18:27:23 10° NNE
NOSS 3-2 (A) 4.2 18:17:18 12° WSW 18:21:40 37° NW 18:27:20 10° NNE
Cosmos 1805 3.8 18:22:38 18° SW 18:24:42 33° WNW 18:27:53 10° N
Cosmos 1328 Rocket 3.6 18:21:35 10° N 18:25:54 83° E 18:30:10 10° S
SJ 16-02 1.2 18:23:01 10° NNW 18:27:19 87° WSW 18:31:35 10° SSE
Iridium 4 Rocket 3.8 18:22:15 10° S 18:27:54 82° E 18:33:12 10° N
SL-16 R/B 2.6 18:21:59 10° SSE 18:28:15 81° WSW 18:34:33 10° NNW
Cosmos 2219 Rocket 3.2 18:25:25 12° WSW 18:29:51 32° NW 18:34:50 10° N
H-2A R/B 3.9 18:27:00 10° NNW 18:29:54 18° WNW 18:32:44 10° WSW
Cosmos 1536 3.3 18:28:08 15° SW 18:30:52 38° WNW 18:34:24 10° N
In-Cosmos 22 4.2 18:25:59 10° NNW 18:31:14 60° W 18:36:34 10° S
AQUA 3.9 18:27:10 10° N 18:31:50 66° WNW 18:36:28 10° SSW
Cosmos 724 4.4 18:30:22 10° NW 18:36:39 89° WSW 18:42:46 10° SSE
Cosmos 1151 Rocket 4.3 18:34:14 10° NW 18:37:35 22° W 18:40:38 11° SW
USA 238 DEB 4.1 18:32:44 10° SSW 18:38:37 54° ESE 18:45:02 10° NE
USA 238 4.1 18:32:51 10° SSW 18:38:44 53° ESE 18:45:08 10° NE
BREEZE-M DEB 2.8 18:33:22 10° WNW 18:39:19 54° SW 18:41:49 10° SE
NOSS 2-2 (C) 4.3 18:38:00 10° WSW 18:40:40 24° NW 18:43:13 10° NNE
Cosmos 2322 Rocket 4.2 18:40:03 10° WNW 18:43:17 15° NW 18:46:31 10° N
NOSS 8 (F) 4.3 18:42:45 10° NW 18:45:48 70° SW 18:49:35 10° SSE
ATLAS CENTAUR R/B 2.9 18:42:59 10° W 18:45:57 22° NW 18:48:59 10° N
Meteor 2-9 Rocket 4.3 18:40:30 10° SSW 18:46:21 73° WNW 18:52:09 10° N
NOSS 8 (H) 4.3 18:44:30 10° NW 18:47:33 62° SW 18:51:20 10° SSE
Cosmos 1331 Rocket 4.0 18:44:01 10° SSW 18:49:09 86° ESE 18:54:19 10° NNE
Sich 1 4.4 18:46:10 10° SSE 18:50:02 39° E 18:53:58 10° NNE
ALOS 3.6 18:46:58 10° NNW 18:50:41 25° WNW 18:54:21 10° WSW
Cosmos 1437 Rocket 3.1 18:48:02 10° NNW 18:51:26 37° W 18:54:46 10° SSW
Cosmos 2366 rocket 4.2 18:46:57 10° SSW 18:53:04 58° WNW 18:59:10 10° N
Exosat Rocket 4.0 18:52:07 10° S 18:57:09 61° ESE 19:02:12 10° NNE
Cosmos 371 Rocket 3.2 18:52:42 10° NNW 18:57:29 72° WSW 19:02:13 10° S
Aureole 2 4.3 18:54:01 10° NNW 18:57:32 60° WSW 19:00:41 10° S
Resurs 1-4 Rocket 3.8 18:55:01 10° NNW 18:58:32 18° WNW 19:02:03 10° W
Cosmos 2341 Rocket 4.4 18:53:25 10° SSW 18:59:21 46° WNW 19:05:22 10° N
Cosmos 405 Rocket 4.5 18:58:59 10° W 19:00:29 13° WNW 19:02:01 10° NW
UNK 3.7 18:56:03 10° SSE 19:00:35 82° WSW 19:05:11 10° NNW
CZ-2C R/B 2.7 18:56:14 10° NNE 19:01:21 81° ESE 19:06:30 10° SSW
Cosmos 1766 3.2 18:58:35 10° SSW 19:01:57 52° W 19:05:21 10° N
NOSS 2-3 (E) 3.7 18:58:39 10° SSW 19:02:14 54° ESE 19:05:55 10° NE
Cosmos 1452 Rocket 3.6 18:59:46 10° SSW 19:05:00 82° WNW 19:10:18 10° NNE
ARGOS Delta rocket 4.1 19:00:45 10° N 19:05:46 59° WNW 19:10:28 10° SSW
